When you browse on this site, cookies collect data to enhance your experience and personalize the content and advertising you see.
Visit our Privacy Policy to learn more. By continuing to use the site, you agree to this use of cookies and data.
  • In United Kingdom
  • List of Countries
  • For 7 days
  • Water Temperature
  • Satellite Maps
  • Weather Map
  • Weather Widgets
  • user-avatar
    Login

    Hourly Weather Laksau

    Today, 26 April, Friday

    Time Temperature Precipitation Wind Pressure Humidity
    00:00 +28°C° 0 mm 1 mps 699 mmHg 53%
    01:00 +25°C° 0 mm 0 mps 699 mmHg 44%
    02:00 +25°C° 0 mm 0 mps 699 mmHg 45%
    03:00 +25°C° 0 mm 0 mps 699 mmHg 45%
    04:00 +24°C° 0 mm 0 mps 699 mmHg 45%
    05:00 +25°C° 0 mm 0 mps 700 mmHg 47%
    06:00 +28°C° 0 mm 1 mps 700 mmHg 49%
    07:00 +30°C° 0 mm 1 mps 701 mmHg 51%
    08:00 +33°C° 0 mm 1 mps 701 mmHg 45%
    09:00 +35°C° 0 mm 1 mps 702 mmHg 38%
    10:00 +39°C° 0 mm 1 mps 702 mmHg 32%
    11:00 +40°C° 0 mm 1 mps 702 mmHg 30%
    12:00 +40°C° 0 mm 1 mps 701 mmHg 29%
    13:00 +40°C° 0 mm 1 mps 701 mmHg 28%
    14:00 +39°C° 0 mm 1 mps 700 mmHg 32%
    15:00 +36°C° 0 mm 1 mps 700 mmHg 36%
    16:00 +35°C° 0 mm 1 mps 699 mmHg 39%
    17:00 +33°C° 0.2 mm 1 mps 699 mmHg 46%
    18:00 +31°C° 0.2 mm 1 mps 699 mmHg 53%
    19:00 +29°C° 0.2 mm 1 mps 699 mmHg 60%
    20:00 +29°C° 0.2 mm 1 mps 699 mmHg 63%
    21:00 +28°C° 0.2 mm 1 mps 700 mmHg 65%
    22:00 +27°C° 0.2 mm 1 mps 700 mmHg 68%
    23:00 +27°C° 0.7 mm 1 mps 700 mmHg 72%

    Tomorrow, 27 April, Saturday

    Time Temperature Precipitation Wind Pressure Humidity
    00:00 +26°C° 0.7 mm 1 mps 700 mmHg 76%
    01:00 +25°C° 0.7 mm 1 mps 700 mmHg 80%
    02:00 +25°C° 0.9 mm 1 mps 700 mmHg 80%
    03:00 +23°C° 0.9 mm 0 mps 700 mmHg 80%
    04:00 +23°C° 0.9 mm 0 mps 700 mmHg 79%
    05:00 +23°C° 0.4 mm 0 mps 700 mmHg 78%
    06:00 +24°C° 0.4 mm 0 mps 701 mmHg 77%
    07:00 +27°C° 0.4 mm 1 mps 701 mmHg 76%
    08:00 +30°C° 0 mm 1 mps 702 mmHg 63%
    09:00 +33°C° 0 mm 1 mps 702 mmHg 50%
    10:00 +37°C° 0 mm 2 mps 703 mmHg 37%
    11:00 +36°C° 0 mm 2 mps 702 mmHg 39%
    12:00 +36°C° 0 mm 2 mps 702 mmHg 40%
    13:00 +36°C° 0 mm 2 mps 701 mmHg 42%
    14:00 +36°C° 0 mm 2 mps 700 mmHg 42%
    15:00 +36°C° 0 mm 2 mps 700 mmHg 42%
    16:00 +36°C° 0 mm 2 mps 699 mmHg 42%
    17:00 +33°C° 0.4 mm 1 mps 699 mmHg 50%
    18:00 +30°C° 0.4 mm 1 mps 699 mmHg 57%
    19:00 +26°C° 0.4 mm 0 mps 699 mmHg 64%
    20:00 +26°C° 0.7 mm 0 mps 700 mmHg 69%
    21:00 +27°C° 0.7 mm 1 mps 701 mmHg 73%
    22:00 +26°C° 0.7 mm 1 mps 701 mmHg 77%
    23:00 +26°C° 1.2 mm 1 mps 701 mmHg 80%

    Day after tomorrow, 28 April, Sunday

    Time Temperature Precipitation Wind Pressure Humidity
    00:00 +25°C° 1.2 mm 1 mps 701 mmHg 84%
    01:00 +25°C° 1.2 mm 1 mps 701 mmHg 87%
    02:00 +25°C° 0.2 mm 1 mps 700 mmHg 85%
    03:00 +23°C° 0.2 mm 0 mps 700 mmHg 84%
    04:00 +23°C° 0.2 mm 0 mps 700 mmHg 82%
    05:00 +24°C° 1.9 mm 1 mps 700 mmHg 84%
    06:00 +24°C° 1.9 mm 1 mps 701 mmHg 86%
    07:00 +24°C° 1.9 mm 1 mps 701 mmHg 88%
    08:00 +24°C° 3.5 mm 1 mps 701 mmHg 89%
    09:00 +24°C° 3.5 mm 1 mps 702 mmHg 89%
    10:00 +25°C° 3.5 mm 1 mps 702 mmHg 90%
    11:00 +27°C° 0 mm 1 mps 702 mmHg 75%
    12:00 +30°C° 0 mm 1 mps 701 mmHg 61%
    13:00 +33°C° 0 mm 1 mps 701 mmHg 46%
    14:00 +34°C° 0 mm 1 mps 701 mmHg 44%
    15:00 +34°C° 0 mm 1 mps 700 mmHg 42%
    16:00 +35°C° 0 mm 1 mps 699 mmHg 40%
    17:00 +32°C° 0.2 mm 1 mps 699 mmHg 50%
    18:00 +30°C° 0.2 mm 1 mps 699 mmHg 59%
    19:00 +25°C° 0.2 mm 0 mps 699 mmHg 69%
    20:00 +24°C° 1.6 mm 0 mps 700 mmHg 75%
    21:00 +24°C° 1.6 mm 0 mps 700 mmHg 81%
    22:00 +23°C° 1.6 mm 0 mps 701 mmHg 86%
    23:00 +25°C° 0.4 mm 1 mps 700 mmHg 87%

    29 April, Monday

    Time Temperature Precipitation Wind Pressure Humidity
    00:00 +24°C° 0.4 mm 1 mps 700 mmHg 87%
    01:00 +24°C° 0.4 mm 1 mps 700 mmHg 87%
    02:00 +24°C° 0.6 mm 1 mps 699 mmHg 87%
    03:00 +24°C° 0.6 mm 1 mps 699 mmHg 88%
    04:00 +24°C° 0.6 mm 1 mps 699 mmHg 89%
    05:00 +24°C° 0.6 mm 1 mps 700 mmHg 87%
    06:00 +25°C° 0.6 mm 1 mps 700 mmHg 86%
    07:00 +26°C° 0.6 mm 1 mps 701 mmHg 85%
    08:00 +28°C° 0 mm 1 mps 701 mmHg 73%
    09:00 +31°C° 0 mm 2 mps 702 mmHg 61%
    10:00 +34°C° 0 mm 2 mps 703 mmHg 50%
    11:00 +35°C° 0.3 mm 2 mps 702 mmHg 48%
    12:00 +35°C° 0.3 mm 2 mps 701 mmHg 46%
    13:00 +36°C° 0.3 mm 2 mps 701 mmHg 44%
    14:00 +36°C° 0.1 mm 2 mps 700 mmHg 45%
    15:00 +36°C° 0.1 mm 2 mps 699 mmHg 46%
    16:00 +35°C° 0.1 mm 2 mps 699 mmHg 47%
    17:00 +32°C° 0 mm 2 mps 699 mmHg 54%
    18:00 +30°C° 0 mm 1 mps 699 mmHg 61%
    19:00 +28°C° 0 mm 1 mps 699 mmHg 69%
    20:00 +27°C° 0.1 mm 1 mps 699 mmHg 71%
    21:00 +27°C° 0.1 mm 1 mps 699 mmHg 73%
    22:00 +26°C° 0.1 mm 1 mps 700 mmHg 76%
    23:00 +26°C° 0.2 mm 1 mps 699 mmHg 76%

    30 April, Tuesday

    Time Temperature Precipitation Wind Pressure Humidity
    00:00 +26°C° 0.2 mm 1 mps 699 mmHg 75%
    01:00 +26°C° 0.2 mm 1 mps 699 mmHg 75%
    02:00 +25°C° 0.2 mm 1 mps 699 mmHg 76%
    03:00 +25°C° 0.2 mm 1 mps 699 mmHg 77%
    04:00 +25°C° 0.2 mm 1 mps 698 mmHg 78%
    05:00 +26°C° 0 mm 1 mps 699 mmHg 77%
    06:00 +26°C° 0 mm 1 mps 700 mmHg 75%
    07:00 +27°C° 0 mm 1 mps 700 mmHg 74%
    08:00 +29°C° 0 mm 2 mps 701 mmHg 66%
    09:00 +31°C° 0 mm 2 mps 701 mmHg 58%
    10:00 +34°C° 0 mm 3 mps 702 mmHg 49%
    11:00 +35°C° 0 mm 3 mps 701 mmHg 46%
    12:00 +36°C° 0 mm 3 mps 700 mmHg 43%
    13:00 +37°C° 0 mm 2 mps 700 mmHg 40%
    14:00 +37°C° 0.1 mm 2 mps 699 mmHg 39%
    15:00 +37°C° 0.1 mm 2 mps 699 mmHg 38%
    16:00 +37°C° 0.1 mm 2 mps 698 mmHg 38%
    17:00 +35°C° 0 mm 2 mps 698 mmHg 45%
    18:00 +32°C° 0 mm 1 mps 698 mmHg 51%
    19:00 +29°C° 0 mm 1 mps 698 mmHg 58%
    20:00 +29°C° 0 mm 1 mps 698 mmHg 60%
    21:00 +28°C° 0 mm 1 mps 699 mmHg 62%
    22:00 +27°C° 0 mm 1 mps 699 mmHg 64%
    23:00 +27°C° 0 mm 1 mps 699 mmHg 65%

    1 May, Wednesday

    Time Temperature Precipitation Wind Pressure Humidity
    00:00 +27°C° 0 mm 1 mps 698 mmHg 65%
    01:00 +26°C° 0 mm 1 mps 698 mmHg 66%
    02:00 +26°C° 0.1 mm 1 mps 698 mmHg 69%
    03:00 +26°C° 0.1 mm 1 mps 698 mmHg 72%
    04:00 +25°C° 0.1 mm 1 mps 698 mmHg 75%
    05:00 +26°C° 0.3 mm 1 mps 698 mmHg 76%
    06:00 +26°C° 0.3 mm 1 mps 699 mmHg 77%
    07:00 +27°C° 0.3 mm 1 mps 699 mmHg 77%
    08:00 +29°C° 0.3 mm 1 mps 700 mmHg 67%
    09:00 +32°C° 0.3 mm 1 mps 700 mmHg 58%
    10:00 +35°C° 0.3 mm 2 mps 701 mmHg 48%
    11:00 +36°C° 0.3 mm 2 mps 700 mmHg 45%
    12:00 +37°C° 0.3 mm 2 mps 700 mmHg 41%
    13:00 +37°C° 0.3 mm 2 mps 699 mmHg 38%
    14:00 +37°C° 0.1 mm 2 mps 699 mmHg 39%
    15:00 +37°C° 0.1 mm 2 mps 698 mmHg 41%
    16:00 +36°C° 0.1 mm 2 mps 698 mmHg 42%
    17:00 +34°C° 1 mm 2 mps 698 mmHg 50%
    18:00 +31°C° 1 mm 1 mps 698 mmHg 59%
    19:00 +29°C° 1 mm 1 mps 698 mmHg 68%
    20:00 +28°C° 1.6 mm 1 mps 699 mmHg 73%
    21:00 +27°C° 1.6 mm 1 mps 699 mmHg 79%
    22:00 +24°C° 1.6 mm 0 mps 699 mmHg 85%
    23:00 +26°C° 1 mm 1 mps 699 mmHg 87%
    Show more